Temp
13 15 16 17 19 18 18 20 20 19 20 18 20 21 23 24 20 21 22 22 21 21 21 19 18 18 18 17 17 17 17 17 16 15 14 15 15 15 15 15 16 16 16 16
14 15 17 18 18 18 18 18 19 19 18 19 20 20 21 22 22 22 23 23 22 22 21 19 18 18 17 18 18 18 17 17 16 16 16 16 15 15 16 16 16 16 16 16
16 16 16 17 17 17 17 19 18 19 18 18 19 20 21 21 21 21 21 22 23 22 22 21 19 18 18 18 18 18 17 17 16 16 16 15 15 15 15 15 16 16 17 16
16 15 15 15 15 17 16 17 17 17 18 20 19 21 23 22 22 20 21 21 21 21 21 22 20 19 18 18 18 18 18 17 17 16 16 15 16 16 16 16 18 17 17 17
15 15 16 15 15 17 15 16 16 16 17 17 18 18 22 20 21 22 21 21 21 21 21 21 20 19 18 18 17 17 17 17 17 16 16 16 16 17 17 17 17 17 17 17
15 16 17 17 16 15 15 14 14 15 17 17 19 18 21 22 21 22 23 22 21 21 21 21 20 19 19 17 16 16 17 17 17 16 16 16 16 16 16 15 15 17 17 17
14 15 15 16 15 15 15 15 13 14 14 17 15 17 21 21 21 22 24 24 22 22 21 20 19 16 17 17 16 16 16 17 16 16 16 16 16 16 16 16 15 17 16 16
12 11 13 15 17 15 15 16 15 15 15 18 13 17 20 20 22 21 21 22 21 20 18 18 18 18 18 16 15 15 15 15 16 16 16 15 15 16 16 16 16 15 16 16
14 14 13 15 15 16 14 14 15 14 9 15 18 19 19 19 19 19 19 18 20 20 19 17 16 16 16 15 14 14 14 14 15 15 15 14 14 14 15 15 15 14 15 16
16 14 13 13 16 15 15 16 14 15 14 16 19 17 20 21 21 21 20 19 20 18 17 17 16 16 15 15 15 14 14 14 14 14 14 14 14 14 14 14 14 14 15 15
16 15 12 14 15 15 15 14 16 17 16 17 17 21 21 20 21 22 21 20 20 19 18 16 15 14 13 12 13 13 12 12 12 13 13 12 13 13 13 14 14 14 15 14
15 14 13 14 14 15 17 16 16 16 14 16 15 18 18 19 19 19 20 19 18 16 15 15 13 11 10 10 11 11 11 11 12 13 13 13 12 12 12 13 13 13 13 12
14 13 12 13 14 13 15 15 17 16 15 14 16 20 20 17 18 18 18 19 18 15 15 13 12 12 10 10 10 10 10 10 12 12 11 11 11 10 10 11 12 12 12 11
15 13 16 15 16 16 14 15 16 16 15 17 17 20 21 21 21 20 18 17 17 17 15 14 12 11 10 10 10 10 9 10 11 11 10 9 9 9 9 9 10 10 10 10
15 13 14 16 16 16 16 15 15 15 17 17 19 19 20 21 21 23 21 19 18 18 16 15 14 13 11 10 9 8 8 9 9 9 8 8 8 8 8 8 9 8 7 9
13 12 14 12 14 15 15 16 16 16 17 18 18 19 21 21 21 21 21 19 19 18 18 16 13 12 11 10 9 8 8 8 8 7 7 7 8 8 7 7 7 6 6 8
13 12 11 14 12 13 13 14 15 16 18 18 17 19 20 20 19 19 19 19 18 18 17 16 15 13 11 10 9 8 8 8 7 7 7 7 7 6 6 6 5 5 5 6
13 12 10 10 11 13 16 19 17 17 17 18 19 19 18 19 20 19 17 18 18 17 17 16 15 14 11 11 10 9 8 8 7 7 7 7 6 5 5 5 4 5 5 5
13 13 11 12 13 16 16 13 15 15 17 17 17 18 18 16 15 18 16 16 17 16 14 13 12 12 12 11 10 9 7 6 6 6 5 6 5 5 5 4 4 4 4 4
11 15 14 8 13 13 17 14 14 16 15 19 17 17 17 14 16 19 14 12 11 10 9 9 9 10 10 11 9 7 5 4 4 4 5 6 6 5 4 4 3 3 3 3
10 11 12 12 13 12 12 11 16 14 15 13 15 17 16 15 18 13 10 8 7 7 6 6 7 7 8 8 8 6 5 5 6 5 4 4 4 4 4 3 2 2 1 1
11 12 11 12 13 13 11 11 16 16 12 12 12 11 12 12 10 9 8 7 6 6 5 4 4 5 6 6 5 5 4 5 5 4 4 3 3 2 2 2 1 1 1 1
12 14 12 13 13 11 10 12 9 9 11 10 11 9 10 10 9 8 7 5 5 3 2 2 3 4 4 4 4 4 5 5 4 3 3 2 2 1 1 0 -0 -1 -1 -1
9 9 12 12 10 10 9 8 8 8 9 8 8 8 9 8 6 5 4 3 2 1 0 1 3 2 3 3 3 3 3 4 3 3 2 1 0 -0 -0 -0 -1 -1 -1 -1
10 9 8 8 7 7 7 8 7 6 6 5 4 5 6 6 4 4 2 1 0 -0 -0 0 0 1 1 2 3 3 2 3 2 1 1 -0 -1 -1 -1 -1 -1 -1 -1 -0
6 9 12 13 10 10 8 7 6 6 6 5 4 3 2 3 3 2 0 -1 -1 -1 -1 0 1 1 0 1 1 2 2 1 1 0 -1 -1 -2 -2 -2 -2 -3 -2 -2 -1
Height
817 813 809 808 805 814 826 823 828 832 829 837 832 824 818 814 824 822 818 817 818 820 822 829 833 837 839 841 845 848 852 855 859 862 865 868 869 870 873 875 877 879 881 883
811 810 807 805 808 818 824 826 826 829 833 833 827 824 819 813 814 815 812 811 811 816 819 822 825 830 836 837 839 843 847 849 853 856 858 861 863 866 867 868 871 874 876 878
801 806 807 812 818 824 826 823 828 829 834 832 832 821 812 807 808 810 810 806 806 809 810 816 820 822 827 830 832 835 839 843 846 850 854 857 859 861 862 863 865 868 871 873
803 806 809 819 824 818 834 830 830 835 835 831 824 815 794 795 796 804 803 803 802 803 805 807 812 815 818 820 826 829 831 834 838 842 846 849 850 853 855 856 859 862 866 868
802 806 810 821 821 819 831 829 836 838 838 839 832 833 789 795 795 790 795 796 796 796 796 798 802 804 807 814 816 820 824 827 830 834 837 841 845 847 851 852 853 855 858 862
802 805 806 808 817 823 831 838 845 842 840 838 820 829 795 790 785 780 778 780 785 787 792 791 793 799 802 806 808 812 817 819 824 828 831 832 836 841 843 846 846 847 851 854
809 808 809 808 820 827 829 835 856 859 855 831 832 825 785 776 776 771 768 765 772 777 781 785 790 792 793 796 797 804 807 811 816 820 823 826 828 832 836 838 840 840 843 847
805 823 809 805 805 817 829 826 838 841 841 821 845 814 780 772 764 770 769 766 769 774 778 779 779 785 788 790 791 795 798 803 808 812 815 819 822 825 828 832 834 835 837 840
791 800 805 805 809 811 829 835 830 839 871 838 808 791 778 772 770 771 773 777 772 770 775 775 776 777 779 783 786 788 791 794 798 802 808 810 813 817 822 825 828 829 831 835
773 799 808 812 808 815 813 817 836 834 837 830 799 804 780 771 765 766 770 769 769 770 772 773 771 770 771 774 777 780 784 786 790 794 799 803 806 809 813 818 819 822 824 827
769 778 811 806 797 804 815 819 816 816 821 815 810 781 766 767 762 762 764 765 764 767 766 767 768 767 768 769 771 772 777 779 783 788 791 795 799 802 806 810 814 817 819 822
766 782 799 796 803 801 796 800 804 805 819 811 818 792 770 768 766 767 767 768 764 767 766 766 765 766 766 768 769 768 774 775 777 783 787 789 792 795 798 801 806 811 814 817
760 779 802 810 806 807 795 798 796 799 807 814 810 775 759 770 770 768 770 766 762 766 765 765 766 764 762 763 766 769 771 773 775 779 784 786 787 788 792 795 797 802 806 810
750 770 762 774 764 773 792 785 791 797 805 786 787 757 761 759 760 763 766 768 765 761 761 762 763 762 762 762 762 765 769 771 774 775 780 782 784 785 790 792 793 795 800 805
748 765 765 760 765 767 771 780 788 791 776 790 761 761 760 757 758 754 753 756 757 754 757 757 758 757 758 759 759 762 765 768 772 774 777 778 779 782 786 788 792 793 797 803
754 761 762 777 772 770 773 773 776 774 767 773 756 758 746 752 753 751 752 755 754 752 751 751 752 752 752 755 757 759 763 764 766 770 771 774 775 779 782 784 787 790 794 799
755 760 771 768 779 777 780 756 761 760 755 751 757 729 749 753 754 752 750 749 751 750 748 747 747 749 750 750 753 754 756 759 762 764 766 767 770 774 776 780 783 786 791 798
746 755 771 786 787 779 733 732 742 747 749 748 741 735 745 745 745 747 748 746 746 745 745 748 747 746 745 745 745 750 753 755 757 759 761 764 766 769 772 777 780 784 789 792
740 747 767 765 766 739 732 751 749 754 743 737 732 730 740 749 754 745 744 739 737 740 745 746 748 746 742 741 743 745 747 750 753 753 757 760 762 765 768 771 776 781 786 790
745 735 742 786 756 747 725 735 742 741 731 725 731 731 736 748 753 734 738 739 738 742 745 746 745 743 741 738 738 741 743 746 747 748 750 754 758 762 765 769 772 776 781 786
747 748 742 754 745 736 736 736 727 747 728 723 720 717 726 734 724 736 742 743 742 736 743 748 746 744 742 739 737 738 740 739 741 746 749 752 755 758 761 765 770 774 779 784
727 734 739 745 740 734 730 734 721 712 720 722 727 729 727 731 736 742 746 749 745 740 741 747 748 745 743 739 738 739 740 741 743 745 747 750 754 756 759 763 766 771 775 780
716 700 715 717 708 715 719 712 721 724 723 727 728 733 729 733 736 741 749 751 747 745 746 748 746 745 743 742 740 739 738 740 741 743 745 748 751 755 759 761 764 770 774 779
719 717 707 714 712 713 716 722 725 724 726 730 732 734 732 734 738 744 749 751 751 751 750 748 745 744 744 743 742 741 741 741 741 742 745 747 750 753 756 760 764 766 769 774
703 713 716 719 720 719 722 719 724 728 732 736 738 738 735 737 740 741 749 751 752 753 754 750 748 747 745 745 745 742 742 742 742 743 743 745 747 749 753 756 758 761 764 768
711 698 690 684 700 700 708 717 723 727 734 737 739 743 743 740 741 745 750 753 754 755 754 751 749 749 750 749 747 745 744 744 743 743 745 745 745 747 750 753 756 759 761 763
Wind_Speed
4 4 11 20 17 11 11 10 12 4 3 1 8 17 20 17 8 12 12 13 14 16 18 22 24 24 24 23 23 24 24 24 22 21 18 17 18 18 17 17 19 18 15 15
4 6 6 10 11 12 15 13 12 5 5 5 8 17 15 18 12 15 15 14 16 14 15 21 23 25 25 25 26 26 25 24 25 23 23 18 19 19 19 21 23 21 19 19
10 6 9 14 12 13 7 14 10 4 3 3 4 17 19 14 15 15 14 15 14 17 18 17 23 26 27 30 29 29 29 27 26 25 21 18 14 13 17 23 23 22 22 21
4 6 14 10 8 13 7 6 9 7 3 4 9 8 12 14 21 13 15 16 16 17 17 16 23 26 29 30 28 30 30 30 29 28 25 25 23 21 21 24 26 23 24 21
7 13 17 16 10 8 4 8 5 1 2 2 7 6 8 3 14 19 15 16 18 16 19 19 25 29 31 28 30 31 30 30 30 30 30 27 26 24 20 19 24 30 28 23
6 4 11 9 11 5 13 8 7 3 1 6 12 11 10 10 14 17 17 17 17 18 18 19 24 22 25 26 29 29 30 31 30 29 30 30 29 26 24 21 22 29 31 27
4 8 4 12 15 10 5 12 3 2 4 7 1 11 15 10 11 17 18 17 16 18 14 15 15 18 26 28 30 30 29 31 30 31 31 32 31 29 29 27 25 29 32 29
8 5 10 9 16 12 15 10 4 6 5 3 2 10 4 11 14 12 11 10 6 9 10 11 15 19 20 22 24 27 30 31 29 30 32 30 31 29 29 27 24 26 34 33
10 5 6 13 8 15 8 9 4 1 2 2 5 6 10 8 9 10 14 8 13 10 9 10 11 19 20 21 23 25 27 31 30 31 29 29 28 30 27 26 25 23 29 34
11 6 7 6 13 4 12 15 5 4 5 5 4 6 9 3 11 9 9 10 10 7 7 9 11 15 17 20 22 24 28 29 31 29 27 27 29 31 33 30 30 29 32 35
8 4 5 9 13 18 10 11 6 5 4 3 3 4 4 7 5 8 7 6 7 7 7 7 8 9 12 14 17 20 24 24 25 27 27 26 24 26 32 34 35 33 34 37
5 6 7 22 3 6 17 13 16 6 7 5 1 7 3 3 2 3 5 5 5 6 7 7 8 8 7 11 14 17 20 21 24 25 25 26 25 28 29 33 34 33 36 39
11 6 6 7 4 3 18 12 18 6 1 7 6 9 3 2 3 6 9 9 6 7 5 4 6 7 7 10 11 12 15 18 21 22 22 22 24 27 30 34 35 35 39 42
9 3 9 12 11 13 14 23 20 18 6 14 15 26 11 6 5 5 7 9 10 7 3 4 5 6 9 12 14 15 15 18 19 19 19 20 21 25 28 32 33 36 39 42
7 8 7 3 6 11 15 20 22 23 28 16 27 25 20 17 17 16 11 7 8 7 6 7 7 7 11 13 14 14 14 17 18 18 19 20 22 23 27 28 30 34 38 39
4 3 5 1 5 5 7 17 24 29 29 23 29 24 13 12 18 18 17 14 14 12 11 10 9 10 14 14 14 16 16 18 20 19 21 21 22 24 26 28 30 33 36 37
11 6 5 11 4 5 4 25 23 24 29 31 25 33 11 13 12 13 12 11 11 10 10 10 10 9 11 14 18 22 22 22 23 24 25 24 24 26 27 28 31 35 38 38
16 12 2 3 4 11 11 15 18 22 19 23 24 22 6 15 16 12 9 11 9 10 8 9 9 11 12 16 19 19 21 24 25 27 27 27 27 28 28 30 33 36 38 40
8 9 5 6 9 11 13 3 9 11 19 20 23 21 14 6 4 14 11 12 12 5 3 6 11 13 12 13 15 19 22 25 28 30 31 30 30 30 32 35 37 39 40 39
4 13 8 5 14 17 6 14 11 8 21 11 13 16 14 11 8 14 3 2 3 5 5 6 7 9 11 11 13 17 19 23 29 29 34 34 34 33 35 37 38 40 40 39
7 7 17 9 10 6 5 6 17 13 6 5 5 15 11 11 12 2 3 4 2 5 6 9 9 10 10 9 12 17 19 27 28 28 29 31 34 36 36 36 36 37 36 35
10 11 9 7 12 19 8 8 17 8 0 3 1 2 9 5 5 4 4 3 4 7 8 9 9 11 11 7 8 13 18 18 19 22 26 29 32 33 34 36 36 37 38 36
8 8 7 12 8 1 9 2 3 2 2 3 3 2 7 7 4 5 4 4 7 10 8 7 9 11 10 7 5 11 14 13 14 17 22 26 28 31 32 32 31 29 30 26
5 3 5 4 6 5 7 3 2 2 2 2 4 3 3 8 7 6 4 5 5 7 9 10 12 13 12 10 5 7 10 8 11 15 19 21 24 25 28 28 29 28 28 25
3 10 5 1 2 6 1 4 7 7 7 8 6 3 8 9 7 7 5 5 6 7 7 11 12 12 13 12 10 7 5 6 10 13 15 18 21 24 24 26 28 29 31 34
5 5 9 7 10 2 6 9 9 9 8 8 10 7 6 6 8 6 6 7 8 9 12 14 14 14 14 13 12 9 5 6 10 11 12 14 17 20 21 22 20 24 25 33
Wind_Direction
191 153 194 174 176 147 160 189 214 187 191 185 241 250 258 271 248 246 231 221 218 218 207 208 209 209 205 203 203 204 203 206 202 202 201 209 212 211 213 215 223 217 217 222
141 185 161 165 154 153 166 181 210 217 162 205 252 263 256 259 250 248 243 230 225 218 213 207 207 209 213 209 208 208 208 206 206 206 206 207 211 218 216 221 223 221 226 228
161 154 144 155 145 141 178 197 180 187 187 216 288 275 253 246 237 251 241 243 236 219 217 210 206 209 213 216 212 210 210 210 211 211 210 211 209 213 210 223 228 224 230 229
143 158 144 151 163 154 157 146 121 108 186 238 198 272 237 235 231 216 241 230 231 223 225 215 213 211 216 217 216 217 213 213 214 212 210 207 209 213 220 221 221 223 225 230
135 152 159 168 175 187 129 142 140 190 233 292 207 256 259 239 236 229 224 235 233 229 222 214 214 215 213 214 217 217 217 216 215 214 213 212 216 219 225 222 220 217 218 223
128 149 170 174 154 127 141 99 46 53 345 256 226 224 243 228 225 229 228 215 225 224 229 228 218 217 217 217 218 218 218 220 218 216 217 216 218 218 218 216 213 217 211 216
142 159 138 154 136 138 112 136 102 178 200 244 71 220 246 248 240 232 228 221 210 221 219 226 220 207 218 213 214 215 215 220 217 217 219 220 222 221 224 221 217 209 207 210
152 189 179 169 175 172 168 171 151 188 201 243 142 233 251 253 242 247 249 247 230 231 223 214 216 225 233 223 215 213 215 218 215 217 221 221 221 222 224 225 221 217 214 212
164 142 149 179 137 145 166 204 122 56 114 273 229 277 254 269 270 262 260 274 257 247 242 231 223 225 227 226 224 220 217 218 215 219 220 219 218 219 222 220 218 214 212 212
166 124 208 154 149 176 186 156 169 204 208 237 239 272 253 263 242 240 249 244 251 246 251 249 233 227 225 226 226 220 219 216 216 216 213 215 218 220 225 220 217 219 216 207
154 107 152 160 204 175 158 181 202 179 220 242 282 259 242 277 269 257 269 240 240 264 258 263 276 251 239 231 220 215 212 206 210 213 213 212 212 216 224 228 228 227 220 205
168 110 148 192 91 232 205 198 184 195 185 231 48 264 232 166 229 273 268 284 301 302 292 276 267 259 237 232 222 207 207 205 210 215 216 217 214 215 217 222 224 223 217 204
165 129 112 148 224 192 209 199 204 203 81 204 204 253 195 154 226 237 277 292 309 302 287 278 266 241 223 212 209 213 208 211 212 215 220 220 218 218 217 223 217 216 211 201
129 150 182 186 196 159 200 203 202 204 209 218 222 244 214 244 257 219 226 240 250 264 303 287 254 243 227 217 207 208 217 218 218 216 217 221 220 220 218 219 215 210 205 197
159 195 200 208 151 176 197 199 194 202 224 215 239 246 237 246 255 278 294 280 278 272 249 255 254 236 229 224 216 213 215 218 220 217 220 223 222 217 218 214 213 207 198 196
205 165 150 119 147 171 185 196 202 210 221 228 245 256 256 255 236 250 263 268 269 277 268 253 242 238 229 224 219 217 219 218 215 214 216 217 214 215 216 212 208 202 193 191
182 157 128 218 111 110 290 216 201 211 218 219 234 240 262 244 238 240 239 248 248 261 265 265 255 249 236 225 226 223 219 216 214 215 216 213 212 211 209 209 203 196 192 189
191 187 93 114 131 222 260 193 207 211 221 228 247 255 240 240 248 262 247 249 255 256 272 280 279 264 252 244 234 232 227 220 217 218 217 213 210 210 206 203 199 195 194 192
208 167 160 174 211 273 259 174 171 189 246 224 233 249 245 239 278 266 243 225 239 270 310 293 296 284 273 253 238 227 222 221 219 217 217 215 211 208 204 200 198 196 194 193
179 187 175 163 215 234 112 178 149 140 262 216 225 249 222 179 235 249 143 136 93 46 17 333 312 285 267 255 235 221 218 214 219 216 220 218 214 211 207 203 198 197 198 196
154 168 202 201 225 261 234 176 156 193 282 198 207 246 208 202 215 57 84 69 30 90 21 339 321 300 290 273 227 218 217 222 233 230 225 221 217 214 211 205 202 199 194 194
167 168 197 206 228 248 160 163 184 220 138 144 152 272 190 178 115 93 59 25 34 40 38 7 350 348 336 306 239 228 230 248 241 234 227 223 220 215 211 207 200 200 195 193
192 198 174 196 211 115 186 127 63 61 148 151 141 197 159 133 128 109 89 27 24 28 19 21 29 23 18 360 260 246 256 259 246 233 228 225 219 215 213 202 195 188 190 187
222 186 206 150 183 183 164 108 109 107 123 119 125 143 138 123 117 96 81 60 45 26 16 22 36 36 19 9 340 283 284 269 241 228 226 222 216 209 210 204 201 194 191 190
168 147 170 199 90 91 133 148 137 112 110 103 69 48 104 112 92 95 84 54 48 36 20 36 36 22 14 5 360 344 312 273 237 230 225 221 214 208 205 206 205 202 207 203
202 172 192 211 166 148 149 148 142 131 127 123 114 81 47 81 96 94 81 62 46 31 23 32 33 24 12 8 5 358 335 275 246 233 228 221 207 207 203 201 204 211 217 212